Location: Big Prairie
(40.6673°N, 82.0952°W)
Time: 22:14:25
(UTC+00:00)

Meteor 1-26 Rocket - Pass Details

Date: 04 July 2022
Orbit: 810 x 925 km, 81.3° (Epoch: 07 August)

Event Time Altitude Azimuth Distance (km) Brightness Sun altitude
Rises 05:44:41 0° 358° (N) 3,487 8.7 -26.4°
Reaches altitude 10° 05:47:19 10° 7° (N) 2,562 7.7 -26.4°
Maximum altitude 05:52:41 36° 74° (ENE) 1,398 5.4 -26.3°
Enters shadow 05:54:39 29° 111° (ESE) 1,614 5.5 -26.3°
